User: anonymous   Login
Location: Unspecified
(0.0000°N, 0.0000°E)
Time: 11:22:37
(UTC+00:00)
Language:

Meteosat 3 - Orbit

View from above orbital plane
View from above orbital plane
View from above satellite
View from above satellite

Ground track
Ground track

The orbit data is extracted from the following two-line orbital elements,

1 19215U 88051A   18017.40218469 -.00000078 +00000-0 +00000-0 0  9997
2 19215 016.0993 006.6399 0009509 292.5424 231.3469 00.96946588093603
Epoch (UTC): 17 January 2018 09:39:08
Eccentricity: 0.0009509
inclination: 16.0993°
perigee height: 36704 km
apogee height: 36786 km
right ascension of ascending node: 6.6399°
argument of perigee: 292.5424°
revolutions per day: 0.96946588
mean anomaly at epoch: 231.3469°
orbit number at epoch: 9360

The dashed part of the orbit path shows where the satellite is in the earth's shadow,  

DLR